Ana Sayfa
METAR-TAF:

METAR-TAF

Havaalanları :

Clayton, New Mexico, Amerika Birleşik Devletleri

Enlem: 36-26-54N, Boylam: 103-09-11W, yükseklik: 1513 m

Güncel hava durumu gözlemi

Rapor saat 12:55 UTC de 32 dakika önce yapıldı.
Rüzgar kuzeydan 8 kt
Sıcaklık 2°C
Nem 64%
Basınç 1011 hPa
Görüş mesafesi: 16.1 km
Açık gökyüzü

METAR: KCAO 091255Z AUTO 36008KT 10SM CLR 02/M04 A2985 RMK AO2 SLP093 T00171044

Saat: 06:27 (13:27 UTC)


TAF: eksik

4.000'den fazla havaalanı için hava durumu gözlemleri ve tahminleri (METAR ve TAF raporları).

Kullanılabilir istasyonlar harita üzerinde sarı ve kırmızı noktalarla gösterilir.

İstasyonun adını görmek için fareyi noktanın üzerinde gezdirin.

Sonrasında hava gözlem ve tahminlerini görmek için tıklayın.

Haritayı değiştirmek için: yaklaştırmak için siyah artı işaretli yeşil düğmeye ve uzaklaştırmak için de eksi işaretli düğmeye hızla tıklayın; bitişik haritalar için yeşil okları kullanın.


METAR-TAF: